Year,Month,Day,Hour,Minute,Value (Times are PST for windspeed in km/hr)
2007,10,16,00,00,5.90
2007,10,16,00,01,6.10
2007,10,16,00,02,2.10
2007,10,16,00,03,5.30
2007,10,16,00,04,6.40
2007,10,16,00,05,3.60
2007,10,16,00,06,5.00
2007,10,16,00,07,4.70
2007,10,16,00,08,4.10
2007,10,16,00,09,4.80
2007,10,16,00,10,4.50
2007,10,16,00,11,1.60
2007,10,16,00,12,3.00
2007,10,16,00,13,2.30
2007,10,16,00,14,2.80
2007,10,16,00,15,5.40
2007,10,16,00,16,5.60
2007,10,16,00,17,2.50
2007,10,16,00,18,2.20
2007,10,16,00,19,0.70
2007,10,16,00,20,0.50
2007,10,16,00,21,4.40
2007,10,16,00,22,3.10
2007,10,16,00,23,3.30
2007,10,16,00,24,2.60
2007,10,16,00,25,2.20
2007,10,16,00,26,1.10
2007,10,16,00,27,1.00
2007,10,16,00,28,0.40
2007,10,16,00,29,0.50
2007,10,16,00,30,1.60
2007,10,16,00,31,0.90
2007,10,16,00,32,0.20
2007,10,16,00,33,0.10
2007,10,16,00,34,0.60
2007,10,16,00,35,1.10
2007,10,16,00,36,5.80
2007,10,16,00,37,2.70
2007,10,16,00,38,0.00
2007,10,16,00,39,1.50
2007,10,16,00,40,1.60
2007,10,16,00,41,0.90
2007,10,16,00,42,0.90
2007,10,16,00,43,0.20
2007,10,16,00,44,0.60
2007,10,16,00,45,0.50
2007,10,16,00,46,0.20
2007,10,16,00,47,1.50
2007,10,16,00,48,0.30
2007,10,16,00,49,1.50
2007,10,16,00,50,1.30
2007,10,16,00,51,0.90
2007,10,16,00,52,0.00
2007,10,16,00,53,0.50
2007,10,16,00,54,0.40
2007,10,16,00,55,0.00
2007,10,16,00,56,0.80
2007,10,16,00,57,0.70
2007,10,16,00,58,0.00
2007,10,16,00,59,3.40
2007,10,16,01,00,5.20
2007,10,16,01,01,4.20
2007,10,16,01,02,1.00
2007,10,16,01,03,1.40
2007,10,16,01,04,0.50
2007,10,16,01,05,2.20
2007,10,16,01,06,2.90
2007,10,16,01,07,2.60
2007,10,16,01,08,3.50
2007,10,16,01,09,2.00
2007,10,16,01,10,1.10
2007,10,16,01,11,0.60
2007,10,16,01,12,0.20
2007,10,16,01,13,0.00
2007,10,16,01,14,0.00
2007,10,16,01,15,0.60
2007,10,16,01,16,1.70
2007,10,16,01,17,6.50
2007,10,16,01,18,3.80
2007,10,16,01,19,1.20
2007,10,16,01,20,0.10
2007,10,16,01,21,0.30
2007,10,16,01,22,0.60
2007,10,16,01,23,3.20
2007,10,16,01,24,0.10
2007,10,16,01,25,2.00
2007,10,16,01,26,0.10
2007,10,16,01,27,0.60
2007,10,16,01,28,0.00
2007,10,16,01,29,0.40
2007,10,16,01,30,0.10
2007,10,16,01,31,0.80
2007,10,16,01,32,1.20
2007,10,16,01,33,2.90
2007,10,16,01,34,1.60
2007,10,16,01,35,2.60
2007,10,16,01,36,0.40
2007,10,16,01,37,2.70
2007,10,16,01,38,2.50
2007,10,16,01,39,5.70
2007,10,16,01,40,4.20
2007,10,16,01,41,2.70
2007,10,16,01,42,2.40
2007,10,16,01,43,1.10
2007,10,16,01,44,0.50
2007,10,16,01,45,0.00
2007,10,16,01,46,2.90
2007,10,16,01,47,4.50
2007,10,16,01,48,6.00
2007,10,16,01,49,2.40
2007,10,16,01,50,0.10
2007,10,16,01,51,0.00
2007,10,16,01,52,0.10
2007,10,16,01,53,1.40
2007,10,16,01,54,1.80
2007,10,16,01,55,4.20
2007,10,16,01,56,8.60
2007,10,16,01,57,10.90
2007,10,16,01,58,14.10
2007,10,16,01,59,8.10
2007,10,16,02,00,12.60
2007,10,16,02,01,10.60
2007,10,16,02,02,12.80
2007,10,16,02,03,6.20
2007,10,16,02,04,13.90
2007,10,16,02,05,9.50
2007,10,16,02,06,11.30
2007,10,16,02,07,14.70
2007,10,16,02,08,11.10
2007,10,16,02,09,10.00
2007,10,16,02,10,17.20
2007,10,16,02,11,15.10
2007,10,16,02,12,11.70
2007,10,16,02,13,12.10
2007,10,16,02,14,15.00
2007,10,16,02,15,15.80
2007,10,16,02,16,13.70
2007,10,16,02,17,23.10
2007,10,16,02,18,16.70
2007,10,16,02,19,15.10
2007,10,16,02,20,12.70
2007,10,16,02,21,13.80
2007,10,16,02,22,15.80
2007,10,16,02,23,7.90
2007,10,16,02,24,9.60
2007,10,16,02,25,9.20
2007,10,16,02,26,15.30
2007,10,16,02,27,6.70
2007,10,16,02,28,11.70
2007,10,16,02,29,12.00
2007,10,16,02,30,11.80
2007,10,16,02,31,10.20
2007,10,16,02,32,14.00
2007,10,16,02,33,12.40
2007,10,16,02,34,12.30
2007,10,16,02,35,12.20
2007,10,16,02,36,15.30
2007,10,16,02,37,8.70
2007,10,16,02,38,12.60
2007,10,16,02,39,13.30
2007,10,16,02,40,6.50
2007,10,16,02,41,13.80
2007,10,16,02,42,15.00
2007,10,16,02,43,19.60
2007,10,16,02,44,11.00
2007,10,16,02,45,4.80
2007,10,16,02,46,8.20
2007,10,16,02,47,11.80
2007,10,16,02,48,4.70
2007,10,16,02,49,3.40
2007,10,16,02,50,1.00
2007,10,16,02,51,1.30
2007,10,16,02,52,0.00
2007,10,16,02,53,2.10
2007,10,16,02,54,0.70
2007,10,16,02,55,3.90
2007,10,16,02,56,3.00
2007,10,16,02,57,4.80
2007,10,16,02,58,2.30
2007,10,16,02,59,4.40
2007,10,16,03,00,2.30
2007,10,16,03,01,4.50
2007,10,16,03,02,3.10
2007,10,16,03,03,0.80
2007,10,16,03,04,7.40
2007,10,16,03,05,3.70
2007,10,16,03,06,4.20
2007,10,16,03,07,3.10
2007,10,16,03,08,1.00
2007,10,16,03,09,1.00
2007,10,16,03,10,3.60
2007,10,16,03,11,2.10
2007,10,16,03,12,0.10
2007,10,16,03,13,0.00
2007,10,16,03,14,0.10
2007,10,16,03,15,0.00
2007,10,16,03,16,1.90
2007,10,16,03,17,0.60
2007,10,16,03,18,0.00
2007,10,16,03,19,0.00
2007,10,16,03,20,0.50
2007,10,16,03,21,0.60
2007,10,16,03,22,0.10
2007,10,16,03,23,0.00
2007,10,16,03,24,0.00
2007,10,16,03,25,0.00
2007,10,16,03,26,0.10
2007,10,16,03,27,1.70
2007,10,16,03,28,0.20
2007,10,16,03,29,1.00
2007,10,16,03,30,0.60
2007,10,16,03,31,0.00
2007,10,16,03,32,0.00
2007,10,16,03,33,0.00
2007,10,16,03,34,0.00
2007,10,16,03,35,0.00
2007,10,16,03,36,0.00
2007,10,16,03,37,0.00
2007,10,16,03,38,0.10
2007,10,16,03,39,0.00
2007,10,16,03,40,0.10
2007,10,16,03,41,0.20
2007,10,16,03,42,3.90
2007,10,16,03,43,1.00
2007,10,16,03,44,0.00
2007,10,16,03,45,0.00
2007,10,16,03,46,1.80
2007,10,16,03,47,2.80
2007,10,16,03,48,9.30
2007,10,16,03,49,12.00
2007,10,16,03,50,8.50
2007,10,16,03,51,11.10
2007,10,16,03,52,6.50
2007,10,16,03,53,2.60
2007,10,16,03,54,2.50
2007,10,16,03,55,1.00
2007,10,16,03,56,2.70
2007,10,16,03,57,1.70
2007,10,16,03,58,0.30
2007,10,16,03,59,8.30
2007,10,16,04,00,8.00
2007,10,16,04,01,4.10
2007,10,16,04,02,3.70
2007,10,16,04,03,2.20
2007,10,16,04,04,0.60
2007,10,16,04,05,0.10
2007,10,16,04,06,0.90
2007,10,16,04,07,8.30
2007,10,16,04,08,3.50
2007,10,16,04,09,10.40
2007,10,16,04,10,12.90
2007,10,16,04,11,13.40
2007,10,16,04,12,8.00
2007,10,16,04,13,5.20
2007,10,16,04,14,5.30
2007,10,16,04,15,3.20
2007,10,16,04,16,4.40
2007,10,16,04,17,3.40
2007,10,16,04,18,2.60
2007,10,16,04,19,2.90
2007,10,16,04,20,5.30
2007,10,16,04,21,6.30
2007,10,16,04,22,6.40
2007,10,16,04,23,5.80
2007,10,16,04,24,6.80
2007,10,16,04,25,5.90
2007,10,16,04,26,5.30
2007,10,16,04,27,4.70
2007,10,16,04,28,3.30
2007,10,16,04,29,4.30
2007,10,16,04,30,1.00
2007,10,16,04,31,3.20
2007,10,16,04,32,3.30
2007,10,16,04,33,2.30
2007,10,16,04,34,1.40
2007,10,16,04,35,0.10
2007,10,16,04,36,0.00
2007,10,16,04,37,0.00
2007,10,16,04,38,0.00
2007,10,16,04,39,0.00
2007,10,16,04,40,0.00
2007,10,16,04,41,0.00
2007,10,16,04,42,0.00
2007,10,16,04,43,0.00
2007,10,16,04,44,0.00
2007,10,16,04,45,0.10
2007,10,16,04,46,0.00
2007,10,16,04,47,0.80
2007,10,16,04,48,0.90
2007,10,16,04,49,0.00
2007,10,16,04,50,0.00
2007,10,16,04,51,0.00
2007,10,16,04,52,0.00
2007,10,16,04,53,0.10
2007,10,16,04,54,0.10
2007,10,16,04,55,0.00
2007,10,16,04,56,0.00
2007,10,16,04,57,0.00
2007,10,16,04,58,0.00
2007,10,16,04,59,0.00
2007,10,16,05,00,0.90
2007,10,16,05,01,0.20
2007,10,16,05,02,0.10
2007,10,16,05,03,0.00
2007,10,16,05,04,0.00
2007,10,16,05,05,0.40
2007,10,16,05,06,0.00
2007,10,16,05,07,0.10
2007,10,16,05,08,0.90
2007,10,16,05,09,0.90
2007,10,16,05,10,0.00
2007,10,16,05,11,1.20
2007,10,16,05,12,0.20
2007,10,16,05,13,0.00
2007,10,16,05,14,1.50
2007,10,16,05,15,1.60
2007,10,16,05,16,0.90
2007,10,16,05,17,0.10
2007,10,16,05,18,0.00
2007,10,16,05,19,0.00
2007,10,16,05,20,0.10
2007,10,16,05,21,0.00
2007,10,16,05,22,0.00
2007,10,16,05,23,0.00
2007,10,16,05,24,0.00
2007,10,16,05,25,0.00
2007,10,16,05,26,1.10
2007,10,16,05,27,2.40
2007,10,16,05,28,2.30
2007,10,16,05,29,1.50
2007,10,16,05,30,1.70
2007,10,16,05,31,1.90
2007,10,16,05,32,0.90
2007,10,16,05,33,2.80
2007,10,16,05,34,0.20
2007,10,16,05,35,0.00
2007,10,16,05,36,0.00
2007,10,16,05,37,0.00
2007,10,16,05,38,0.70
2007,10,16,05,39,1.80
2007,10,16,05,40,1.80
2007,10,16,05,41,2.30
2007,10,16,05,42,2.70
2007,10,16,05,43,1.00
2007,10,16,05,44,0.50
2007,10,16,05,45,0.60
2007,10,16,05,46,0.00
2007,10,16,05,47,0.00
2007,10,16,05,48,0.10
2007,10,16,05,49,1.40
2007,10,16,05,50,0.00
2007,10,16,05,51,0.10
2007,10,16,05,52,0.00
2007,10,16,05,53,0.10
2007,10,16,05,54,0.00
2007,10,16,05,55,0.00
2007,10,16,05,56,0.00
2007,10,16,05,57,0.00
2007,10,16,05,58,0.00
2007,10,16,05,59,0.00
2007,10,16,06,00,0.00
2007,10,16,06,01,0.00
2007,10,16,06,02,0.00
2007,10,16,06,03,0.10
2007,10,16,06,04,1.00
2007,10,16,06,05,0.00
2007,10,16,06,06,0.00
2007,10,16,06,07,1.10
2007,10,16,06,08,0.00
2007,10,16,06,09,0.10
2007,10,16,06,10,0.00
2007,10,16,06,11,0.00
2007,10,16,06,12,0.00
2007,10,16,06,13,0.00
2007,10,16,06,14,0.00
2007,10,16,06,15,0.00
2007,10,16,06,16,0.00
2007,10,16,06,17,0.00
2007,10,16,06,18,0.20
2007,10,16,06,19,0.10
2007,10,16,06,20,0.00
2007,10,16,06,21,0.10
2007,10,16,06,22,0.00
2007,10,16,06,23,0.20
2007,10,16,06,24,0.00
2007,10,16,06,25,0.10
2007,10,16,06,26,0.00
2007,10,16,06,27,0.00
2007,10,16,06,28,0.00
2007,10,16,06,29,0.00
2007,10,16,06,30,0.10
2007,10,16,06,31,0.10
2007,10,16,06,32,0.00
2007,10,16,06,33,0.00
2007,10,16,06,34,0.00
2007,10,16,06,35,0.00
2007,10,16,06,36,0.20
2007,10,16,06,37,0.20
2007,10,16,06,38,0.00
2007,10,16,06,39,0.60
2007,10,16,06,40,0.40
2007,10,16,06,41,0.90
2007,10,16,06,42,0.20
2007,10,16,06,43,0.00
2007,10,16,06,44,0.00
2007,10,16,06,45,0.00
2007,10,16,06,46,0.00
2007,10,16,06,47,0.00
2007,10,16,06,48,0.00
2007,10,16,06,49,0.90
2007,10,16,06,50,0.10
2007,10,16,06,51,0.00
2007,10,16,06,52,0.00
2007,10,16,06,53,0.00
2007,10,16,06,54,0.00
2007,10,16,06,55,0.00
2007,10,16,06,56,0.00
2007,10,16,06,57,0.00
2007,10,16,06,58,0.00
2007,10,16,06,59,0.00
2007,10,16,07,00,0.60
2007,10,16,07,01,1.00
2007,10,16,07,02,1.30
2007,10,16,07,03,0.80
2007,10,16,07,04,0.00
2007,10,16,07,05,0.00
2007,10,16,07,06,0.00
2007,10,16,07,07,0.00
2007,10,16,07,08,0.00
2007,10,16,07,09,0.00
2007,10,16,07,10,0.00
2007,10,16,07,11,0.10
2007,10,16,07,12,0.00
2007,10,16,07,13,0.00
2007,10,16,07,14,0.00
2007,10,16,07,15,0.00
2007,10,16,07,16,0.40
2007,10,16,07,17,0.00
2007,10,16,07,18,0.00
2007,10,16,07,19,0.00
2007,10,16,07,20,0.90
2007,10,16,07,21,1.90
2007,10,16,07,22,0.10
2007,10,16,07,23,0.00
2007,10,16,07,24,0.00
2007,10,16,07,25,0.80
2007,10,16,07,26,0.20
2007,10,16,07,27,0.10
2007,10,16,07,28,0.60
2007,10,16,07,29,0.50
2007,10,16,07,30,1.30
2007,10,16,07,31,0.10
2007,10,16,07,32,0.20
2007,10,16,07,33,0.10
2007,10,16,07,34,0.00
2007,10,16,07,35,0.00
2007,10,16,07,36,0.00
2007,10,16,07,37,0.00
2007,10,16,07,38,1.20
2007,10,16,07,39,1.60
2007,10,16,07,40,0.40
2007,10,16,07,41,0.20
2007,10,16,07,42,0.00
2007,10,16,07,43,0.00
2007,10,16,07,44,0.00
2007,10,16,07,45,0.00
2007,10,16,07,46,0.00
2007,10,16,07,47,0.10
2007,10,16,07,48,0.80
2007,10,16,07,49,0.10
2007,10,16,07,50,0.00
2007,10,16,07,51,0.00
2007,10,16,07,52,0.00
2007,10,16,07,53,0.00
2007,10,16,07,54,0.00
2007,10,16,07,55,0.00
2007,10,16,07,56,0.20
2007,10,16,07,57,0.00
2007,10,16,07,58,0.10
2007,10,16,07,59,0.50
2007,10,16,08,00,2.00
2007,10,16,08,01,1.70
2007,10,16,08,02,0.70
2007,10,16,08,03,0.10
2007,10,16,08,04,0.30
2007,10,16,08,05,0.80
2007,10,16,08,06,2.50
2007,10,16,08,07,3.10
2007,10,16,08,08,1.10
2007,10,16,08,09,3.40
2007,10,16,08,10,4.40
2007,10,16,08,11,3.10
2007,10,16,08,12,3.60
2007,10,16,08,13,1.70
2007,10,16,08,14,0.10
2007,10,16,08,15,0.30
2007,10,16,08,16,1.40
2007,10,16,08,17,0.00
2007,10,16,08,18,0.60
2007,10,16,08,19,0.00
2007,10,16,08,20,0.00
2007,10,16,08,21,0.00
2007,10,16,08,22,0.70
2007,10,16,08,23,0.00
2007,10,16,08,24,1.00
2007,10,16,08,25,2.60
2007,10,16,08,26,0.30
2007,10,16,08,27,0.10
2007,10,16,08,28,0.10
2007,10,16,08,29,2.40
2007,10,16,08,30,2.30
2007,10,16,08,31,0.80
2007,10,16,08,32,0.00
2007,10,16,08,33,0.20
2007,10,16,08,34,1.40
2007,10,16,08,35,3.50
2007,10,16,08,36,0.20
2007,10,16,08,37,0.90
2007,10,16,08,38,0.60
2007,10,16,08,39,0.80
2007,10,16,08,40,0.80
2007,10,16,08,41,2.10
2007,10,16,08,42,1.20
2007,10,16,08,43,2.00
2007,10,16,08,44,1.00
2007,10,16,08,45,0.20
2007,10,16,08,46,0.10
2007,10,16,08,47,0.70
2007,10,16,08,48,2.40
2007,10,16,08,49,1.40
2007,10,16,08,50,0.10
2007,10,16,08,51,0.00
2007,10,16,08,52,0.00
2007,10,16,08,53,1.10
2007,10,16,08,54,0.10
2007,10,16,08,55,0.90
2007,10,16,08,56,0.40
2007,10,16,08,57,0.50
2007,10,16,08,58,0.50
2007,10,16,08,59,0.10
2007,10,16,09,00,0.00
2007,10,16,09,01,0.00
2007,10,16,09,02,0.00
2007,10,16,09,03,0.00
2007,10,16,09,04,1.90
2007,10,16,09,05,1.50
2007,10,16,09,06,0.00
2007,10,16,09,07,0.10
2007,10,16,09,08,3.50
2007,10,16,09,09,2.40
2007,10,16,09,10,1.80
2007,10,16,09,11,2.10
2007,10,16,09,12,1.40
2007,10,16,09,13,1.80
2007,10,16,09,14,0.60
2007,10,16,09,15,0.60
2007,10,16,09,16,1.90
2007,10,16,09,17,0.20
2007,10,16,09,18,0.70
2007,10,16,09,19,0.10
2007,10,16,09,20,0.30
2007,10,16,09,21,0.70
2007,10,16,09,22,3.10
2007,10,16,09,23,0.20
2007,10,16,09,24,0.00
2007,10,16,09,25,0.90
2007,10,16,09,26,0.10
2007,10,16,09,27,0.00
2007,10,16,09,28,0.10
2007,10,16,09,29,1.80
2007,10,16,09,30,3.40
2007,10,16,09,31,5.60
2007,10,16,09,32,3.60
2007,10,16,09,33,3.70
2007,10,16,09,34,0.90
2007,10,16,09,35,0.20
2007,10,16,09,36,0.20
2007,10,16,09,37,0.80
2007,10,16,09,38,0.20
2007,10,16,09,39,0.00
2007,10,16,09,40,0.00
2007,10,16,09,41,0.10
2007,10,16,09,42,1.40
2007,10,16,09,43,3.30
2007,10,16,09,44,2.40
2007,10,16,09,45,4.20
2007,10,16,09,46,6.40
2007,10,16,09,47,3.00
2007,10,16,09,48,5.80
2007,10,16,09,49,4.20
2007,10,16,09,50,0.20
2007,10,16,09,51,2.50
2007,10,16,09,52,0.90
2007,10,16,09,53,0.90
2007,10,16,09,54,1.00
2007,10,16,09,55,1.00
2007,10,16,09,56,0.10
2007,10,16,09,57,0.10
2007,10,16,09,58,0.00
2007,10,16,09,59,0.10
2007,10,16,10,00,0.70
2007,10,16,10,01,2.10
2007,10,16,10,02,2.00
2007,10,16,10,03,0.60
2007,10,16,10,04,0.60
2007,10,16,10,05,1.10
2007,10,16,10,06,0.70
2007,10,16,10,07,2.30
2007,10,16,10,08,3.00
2007,10,16,10,09,4.10
2007,10,16,10,10,3.00
2007,10,16,10,11,1.50
2007,10,16,10,12,0.10
2007,10,16,10,13,0.20
2007,10,16,10,14,2.60
2007,10,16,10,15,3.50
2007,10,16,10,16,3.50
2007,10,16,10,17,1.80
2007,10,16,10,18,1.00
2007,10,16,10,19,0.70
2007,10,16,10,20,1.90
2007,10,16,10,21,1.20
2007,10,16,10,22,2.10
2007,10,16,10,23,2.00
2007,10,16,10,24,0.80
2007,10,16,10,25,0.90
2007,10,16,10,26,1.00
2007,10,16,10,27,0.30
2007,10,16,10,28,0.20
2007,10,16,10,29,0.30
2007,10,16,10,30,3.80
2007,10,16,10,31,0.90
2007,10,16,10,32,0.70
2007,10,16,10,33,0.30
2007,10,16,10,34,1.90
2007,10,16,10,35,1.40
2007,10,16,10,36,0.70
2007,10,16,10,37,0.90
2007,10,16,10,38,0.00
2007,10,16,10,39,1.50
2007,10,16,10,40,0.20
2007,10,16,10,41,4.40
2007,10,16,10,42,3.60
2007,10,16,10,43,1.70
2007,10,16,10,44,2.80
2007,10,16,10,45,6.00
2007,10,16,10,46,7.70
2007,10,16,10,47,2.90
2007,10,16,10,48,5.90
2007,10,16,10,49,4.70
2007,10,16,10,50,5.10
2007,10,16,10,51,2.50
2007,10,16,10,52,3.50
2007,10,16,10,53,4.20
2007,10,16,10,54,5.80
2007,10,16,10,55,11.00
2007,10,16,10,56,6.80
2007,10,16,10,57,5.20
2007,10,16,10,58,3.90
2007,10,16,10,59,3.00
2007,10,16,11,00,1.00
2007,10,16,11,01,4.90
2007,10,16,11,02,2.70
2007,10,16,11,03,2.10
2007,10,16,11,04,3.90
2007,10,16,11,05,2.00
2007,10,16,11,06,0.70
2007,10,16,11,07,5.20
2007,10,16,11,08,6.00
2007,10,16,11,09,1.70
2007,10,16,11,10,4.60
2007,10,16,11,11,3.20
2007,10,16,11,12,2.80
2007,10,16,11,13,3.80
2007,10,16,11,14,3.80
2007,10,16,11,15,4.50
2007,10,16,11,16,2.70
2007,10,16,11,17,2.00
2007,10,16,11,18,1.20
2007,10,16,11,19,6.20
2007,10,16,11,20,3.50
2007,10,16,11,21,1.40
2007,10,16,11,22,4.10
2007,10,16,11,23,0.50
2007,10,16,11,24,3.00
2007,10,16,11,25,1.70
2007,10,16,11,26,0.70
2007,10,16,11,27,2.20
2007,10,16,11,28,0.70
2007,10,16,11,29,4.20
2007,10,16,11,30,4.40
2007,10,16,11,31,9.90
2007,10,16,11,32,5.70
2007,10,16,11,33,7.10
2007,10,16,11,34,2.30
2007,10,16,11,35,4.10
2007,10,16,11,36,3.70
2007,10,16,11,37,2.90
2007,10,16,11,38,3.00
2007,10,16,11,39,5.70
2007,10,16,11,40,1.80
2007,10,16,11,41,5.20
2007,10,16,11,42,2.20
2007,10,16,11,43,1.50
2007,10,16,11,44,5.60
2007,10,16,11,45,5.40
2007,10,16,11,46,6.20
2007,10,16,11,47,1.00
2007,10,16,11,48,7.60
2007,10,16,11,49,8.50
2007,10,16,11,50,7.10
2007,10,16,11,51,1.70
2007,10,16,11,52,4.40
2007,10,16,11,53,7.00
2007,10,16,11,54,8.20
2007,10,16,11,55,11.00
2007,10,16,11,56,7.40
2007,10,16,11,57,4.00
2007,10,16,11,58,6.90
2007,10,16,11,59,10.60
2007,10,16,12,00,13.90
2007,10,16,12,01,7.60
2007,10,16,12,02,9.70
2007,10,16,12,03,4.20
2007,10,16,12,04,13.00
2007,10,16,12,05,9.10
2007,10,16,12,06,3.50
2007,10,16,12,07,4.50
2007,10,16,12,08,7.80
2007,10,16,12,09,8.70
2007,10,16,12,10,2.90
2007,10,16,12,11,4.10
2007,10,16,12,12,7.40
2007,10,16,12,13,7.60
2007,10,16,12,14,10.00
2007,10,16,12,15,7.00
2007,10,16,12,16,6.00
2007,10,16,12,17,8.00
2007,10,16,12,18,7.60
2007,10,16,12,19,3.50
2007,10,16,12,20,4.90
2007,10,16,12,21,3.00
2007,10,16,12,22,2.80
2007,10,16,12,23,4.70
2007,10,16,12,24,8.10
2007,10,16,12,25,8.60
2007,10,16,12,26,9.00
2007,10,16,12,27,9.30
2007,10,16,12,28,14.00
2007,10,16,12,29,9.20
2007,10,16,12,30,8.30
2007,10,16,12,31,11.70
2007,10,16,12,32,7.40
2007,10,16,12,33,14.60
2007,10,16,12,34,12.90
2007,10,16,12,35,11.90
2007,10,16,12,36,9.10
2007,10,16,12,37,9.20
2007,10,16,12,38,6.50
2007,10,16,12,39,5.60
2007,10,16,12,40,11.20
2007,10,16,12,41,12.30
2007,10,16,12,42,11.40
2007,10,16,12,43,10.50
2007,10,16,12,44,13.90
2007,10,16,12,45,14.80
2007,10,16,12,46,11.40
2007,10,16,12,47,9.30
2007,10,16,12,48,9.70
2007,10,16,12,49,10.20
2007,10,16,12,50,15.10
2007,10,16,12,51,12.00
2007,10,16,12,52,11.40
2007,10,16,12,53,7.90
2007,10,16,12,54,13.30
2007,10,16,12,55,9.40
2007,10,16,12,56,12.10
2007,10,16,12,57,8.10
2007,10,16,12,58,11.20
2007,10,16,12,59,6.70
2007,10,16,13,00,4.90
2007,10,16,13,01,8.40
2007,10,16,13,02,8.40
2007,10,16,13,03,7.70
2007,10,16,13,04,12.00
2007,10,16,13,05,9.90
2007,10,16,13,06,9.80
2007,10,16,13,07,9.60
2007,10,16,13,08,12.60
2007,10,16,13,09,19.70
2007,10,16,13,10,18.60
2007,10,16,13,11,15.80
2007,10,16,13,12,13.90
2007,10,16,13,13,9.00
2007,10,16,13,14,13.60
2007,10,16,13,15,12.10
2007,10,16,13,16,6.80
2007,10,16,13,17,8.00
2007,10,16,13,18,5.70
2007,10,16,13,19,5.40
2007,10,16,13,20,13.60
2007,10,16,13,21,18.90
2007,10,16,13,22,13.30
2007,10,16,13,23,9.70
2007,10,16,13,24,11.80
2007,10,16,13,25,11.50
2007,10,16,13,26,10.40
2007,10,16,13,27,10.40
2007,10,16,13,28,16.00
2007,10,16,13,29,10.10
2007,10,16,13,30,17.50
2007,10,16,13,31,12.90
2007,10,16,13,32,19.30
2007,10,16,13,33,12.60
2007,10,16,13,34,18.40
2007,10,16,13,35,20.40
2007,10,16,13,36,8.90
2007,10,16,13,37,11.70
2007,10,16,13,38,17.10
2007,10,16,13,39,8.10
2007,10,16,13,40,19.90
2007,10,16,13,41,25.60
2007,10,16,13,42,19.30
2007,10,16,13,43,9.90
2007,10,16,13,44,12.30
2007,10,16,13,45,19.00
2007,10,16,13,46,28.10
2007,10,16,13,47,19.10
2007,10,16,13,48,17.50
2007,10,16,13,49,14.50
2007,10,16,13,50,19.20
2007,10,16,13,51,23.30
2007,10,16,13,52,24.90
2007,10,16,13,53,18.80
2007,10,16,13,54,22.20
2007,10,16,13,55,21.80
2007,10,16,13,56,26.80
2007,10,16,13,57,26.20
2007,10,16,13,58,21.40
2007,10,16,13,59,24.30
2007,10,16,14,00,20.40
2007,10,16,14,01,21.50
2007,10,16,14,02,22.60
2007,10,16,14,03,23.30
2007,10,16,14,04,31.20
2007,10,16,14,05,39.00
2007,10,16,14,06,15.20
2007,10,16,14,07,18.30
2007,10,16,14,08,10.30
2007,10,16,14,09,11.40
2007,10,16,14,10,15.30
2007,10,16,14,11,13.00
2007,10,16,14,12,22.70
2007,10,16,14,13,16.20
2007,10,16,14,14,11.20
2007,10,16,14,15,8.40
2007,10,16,14,16,6.70
2007,10,16,14,17,14.80
2007,10,16,14,18,14.70
2007,10,16,14,19,18.30
2007,10,16,14,20,11.70
2007,10,16,14,21,10.80
2007,10,16,14,22,9.00
2007,10,16,14,23,13.80
2007,10,16,14,24,14.60
2007,10,16,14,25,16.50
2007,10,16,14,26,9.70
2007,10,16,14,27,9.60
2007,10,16,14,28,10.40
2007,10,16,14,29,6.90
2007,10,16,14,30,6.70
2007,10,16,14,31,5.30
2007,10,16,14,32,7.40
2007,10,16,14,33,8.10
2007,10,16,14,34,7.00
2007,10,16,14,35,7.40
2007,10,16,14,36,8.70
2007,10,16,14,37,7.40
2007,10,16,14,38,11.30
2007,10,16,14,39,11.20
2007,10,16,14,40,5.40
2007,10,16,14,41,4.40
2007,10,16,14,42,4.30
2007,10,16,14,43,7.50
2007,10,16,14,44,9.30
2007,10,16,14,45,7.50
2007,10,16,14,46,6.80
2007,10,16,14,47,7.40
2007,10,16,14,48,7.60
2007,10,16,14,49,6.20
2007,10,16,14,50,5.00
2007,10,16,14,51,4.90
2007,10,16,14,52,3.70
2007,10,16,14,53,2.50
2007,10,16,14,54,3.10
2007,10,16,14,55,1.60
2007,10,16,14,56,5.60
2007,10,16,14,57,3.10
2007,10,16,14,58,2.80
2007,10,16,14,59,0.90
2007,10,16,15,00,0.60
2007,10,16,15,01,0.70
2007,10,16,15,02,0.30
2007,10,16,15,03,3.60
2007,10,16,15,04,4.90
2007,10,16,15,05,2.00
2007,10,16,15,06,0.30
2007,10,16,15,07,6.20
2007,10,16,15,08,3.30
2007,10,16,15,09,3.00
2007,10,16,15,10,3.80
2007,10,16,15,11,4.20
2007,10,16,15,12,3.00
2007,10,16,15,13,2.50
2007,10,16,15,14,0.30
2007,10,16,15,15,0.30
2007,10,16,15,16,7.90
2007,10,16,15,17,7.40
2007,10,16,15,18,5.10
2007,10,16,15,19,4.00
2007,10,16,15,20,2.20
2007,10,16,15,21,0.50
2007,10,16,15,22,0.00
2007,10,16,15,23,0.70
2007,10,16,15,24,4.90
2007,10,16,15,25,2.00
2007,10,16,15,26,1.10
2007,10,16,15,27,0.40
2007,10,16,15,28,1.70
2007,10,16,15,29,0.90
2007,10,16,15,30,0.10
2007,10,16,15,31,1.90
2007,10,16,15,32,1.50
2007,10,16,15,33,0.00
2007,10,16,15,34,0.40
2007,10,16,15,35,0.60
2007,10,16,15,36,0.00
2007,10,16,15,37,0.10
2007,10,16,15,38,0.40
2007,10,16,15,39,1.20
2007,10,16,15,40,0.30
2007,10,16,15,41,0.00
2007,10,16,15,42,0.80
2007,10,16,15,43,0.40
2007,10,16,15,44,0.90
2007,10,16,15,45,0.30
2007,10,16,15,46,0.90
2007,10,16,15,47,2.60
2007,10,16,15,48,5.00
2007,10,16,15,49,4.40
2007,10,16,15,50,3.20
2007,10,16,15,51,0.20
2007,10,16,15,52,2.60
2007,10,16,15,53,3.70
2007,10,16,15,54,5.80
2007,10,16,15,55,4.00
2007,10,16,15,56,6.00
2007,10,16,15,57,3.70
2007,10,16,15,58,0.30
2007,10,16,15,59,3.00
2007,10,16,16,00,2.80
2007,10,16,16,01,1.70
2007,10,16,16,02,0.40
2007,10,16,16,03,0.20
2007,10,16,16,04,1.50
2007,10,16,16,05,4.20
2007,10,16,16,06,3.00
2007,10,16,16,07,1.00
2007,10,16,16,08,3.80
2007,10,16,16,09,2.40
2007,10,16,16,10,2.00
2007,10,16,16,11,2.50
2007,10,16,16,12,0.10
2007,10,16,16,13,0.40
2007,10,16,16,14,0.50
2007,10,16,16,15,1.10
2007,10,16,16,16,0.10
2007,10,16,16,17,0.60
2007,10,16,16,18,1.40
2007,10,16,16,19,0.20
2007,10,16,16,20,2.40
2007,10,16,16,21,1.50
2007,10,16,16,22,2.40
2007,10,16,16,23,4.50
2007,10,16,16,24,6.30
2007,10,16,16,25,2.30
2007,10,16,16,26,0.30
2007,10,16,16,27,0.20
2007,10,16,16,28,2.10
2007,10,16,16,29,2.60
2007,10,16,16,30,10.70
2007,10,16,16,31,1.70
2007,10,16,16,32,1.90
2007,10,16,16,33,3.50
2007,10,16,16,34,2.40
2007,10,16,16,35,1.10
2007,10,16,16,36,1.60
2007,10,16,16,37,4.60
2007,10,16,16,38,6.00
2007,10,16,16,39,3.20
2007,10,16,16,40,0.10
2007,10,16,16,41,3.00
2007,10,16,16,42,3.90
2007,10,16,16,43,2.30
2007,10,16,16,44,0.40
2007,10,16,16,45,0.20
2007,10,16,16,46,0.00
2007,10,16,16,47,1.40
2007,10,16,16,48,1.00
2007,10,16,16,49,1.70
2007,10,16,16,50,2.60
2007,10,16,16,51,3.90
2007,10,16,16,52,2.30
2007,10,16,16,53,0.10
2007,10,16,16,54,0.60
2007,10,16,16,55,0.20
2007,10,16,16,56,1.00
2007,10,16,16,57,2.10
2007,10,16,16,58,0.20
2007,10,16,16,59,4.10
2007,10,16,17,00,6.20
2007,10,16,17,01,4.40
2007,10,16,17,02,2.30
2007,10,16,17,03,1.80
2007,10,16,17,04,0.20
2007,10,16,17,05,1.10
2007,10,16,17,06,2.90
2007,10,16,17,07,1.70
2007,10,16,17,08,0.20
2007,10,16,17,09,0.60
2007,10,16,17,10,0.70
2007,10,16,17,11,2.00
2007,10,16,17,12,0.00
2007,10,16,17,13,0.50
2007,10,16,17,14,1.50
2007,10,16,17,15,6.10
2007,10,16,17,16,5.50
2007,10,16,17,17,0.20
2007,10,16,17,18,0.10
2007,10,16,17,19,1.40
2007,10,16,17,20,0.00
2007,10,16,17,21,0.90
2007,10,16,17,22,0.20
2007,10,16,17,23,1.10
2007,10,16,17,24,5.50
2007,10,16,17,25,4.10
2007,10,16,17,26,2.70
2007,10,16,17,27,2.70
2007,10,16,17,28,1.50
2007,10,16,17,29,0.10
2007,10,16,17,30,4.40
2007,10,16,17,31,0.50
2007,10,16,17,32,2.30
2007,10,16,17,33,1.60
2007,10,16,17,34,6.00
2007,10,16,17,35,2.50
2007,10,16,17,36,1.00
2007,10,16,17,37,0.00
2007,10,16,17,38,0.00
2007,10,16,17,39,0.00
2007,10,16,17,40,0.10
2007,10,16,17,41,0.10
2007,10,16,17,42,0.10
2007,10,16,17,43,0.00
2007,10,16,17,44,1.00
2007,10,16,17,45,0.00
2007,10,16,17,46,0.30
2007,10,16,17,47,0.20
2007,10,16,17,48,0.30
2007,10,16,17,49,0.10
2007,10,16,17,50,0.00
2007,10,16,17,51,0.00
2007,10,16,17,52,0.00
2007,10,16,17,53,2.10
2007,10,16,17,54,1.20
2007,10,16,17,55,1.40
2007,10,16,17,56,1.90
2007,10,16,17,57,1.30
2007,10,16,17,58,0.40
2007,10,16,17,59,0.00
2007,10,16,18,00,0.40